FW9830 Weather Reports


time (UTC)temp
F
wind
direction
speed
knots
gust
knots
rain 1hr
in
rain 24hr
in
rain mn
in
humidity
%
barometer
mb
20260505074122 45 331 7.0 13.0 0.00 0.00 0.00 48 1005.3
20260505073620 45 339 10.4 13.0 0.00 0.00 0.00 48 1005.5
20260505073118 46 324 12.2 17.4 0.00 0.00 0.00 47 1005.3
20260505072613 46 5 7.0 15.6 0.00 0.00 0.00 48 1005.1
20260505072110 46 346 7.8 13.0 0.00 0.00 0.00 48 1005.2
20260505071605 46 347 10.4 13.9 0.00 0.00 0.00 48 1005.0
20260505071103 46 339 11.3 19.1 0.00 0.00 0.00 49 1005.4
20260505070600 47 354 14.8 15.6 0.00 0.00 0.00 51 1005.4
20260505070056 47 354 7.0 15.6 0.00 0.00 0.00 52 1005.2
20260505065552 47 356 8.7 14.8 0.00 0.00 0.00 53 1005.3
20260505065049 47 319 5.2 13.0 0.00 0.00 0.00 54 1005.3
20260505064546 48 355 10.4 15.6 0.00 0.00 0.00 53 1005.3
20260505064044 48 322 6.1 8.7 0.00 0.00 0.00 52 1005.0
20260505063542 48 322 8.7 11.3 0.00 0.00 0.00 51 1005.1
20260505063037 48 333 7.8 14.8 0.00 0.00 0.00 52 1004.8
20260505062534 49 330 10.4 13.0 0.00 0.00 0.00 52 1004.9
20260505062031 49 332 9.6 15.6 0.00 0.00 0.00 52 1005.0
20260505061529 49 339 10.4 11.3 0.00 0.00 0.00 52 1004.8
20260505061026 49 334 9.6 19.1 0.00 0.00 0.00 51 1004.9
20260505060524 49 341 7.8 17.4 0.00 0.00 0.00 51 1004.8
20260505060020 50 342 9.6 20.0 0.00 0.00 0.00 50 1004.8
20260505055515 50 337 11.3 14.8 0.00 0.00 0.00 51 1004.5
20260505055013 50 324 6.1 13.9 0.00 0.00 0.00 50 1004.6
20260505054510 50 320 6.1 16.5 0.00 0.00 0.00 49 1004.4
20260505054008 50 338 13.9 18.2 0.00 0.00 0.00 48 1004.3
20260505053505 50 353 7.8 12.2 0.00 0.00 0.00 49 1004.4
20260505053001 51 335 11.3 17.4 0.00 0.00 0.00 49 1004.3
20260505052459 51 355 5.2 16.5 0.00 0.00 0.00 48 1004.1
20260505051955 52 317 14.8 15.6 0.00 0.00 0.00 48 1003.6
20260505051452 52 344 9.6 15.6 0.00 0.00 0.00 47 1003.7
20260505050951 52 347 10.4 12.2 0.00 0.00 0.00 48 1003.5
20260505050449 52 336 7.0 11.3 0.00 0.00 0.00 48 1003.2
20260505041416 55 347 7.8 13.9 0.00 0.00 0.00 49 1002.5
20260505040913 55 317 10.4 13.0 0.00 0.00 0.00 48 1002.5
20260505040411 55 356 10.4 14.8 0.00 0.00 0.00 48 1002.5
20260505035907 55 319 9.6 17.4 0.00 0.00 0.00 49 1002.2
20260505035403 55 338 6.1 10.4 0.00 0.00 0.00 49 1002.2
20260505034901 55 344 9.6 14.8 0.00 0.00 0.00 48 1002.1
20260505034357 56 337 7.8 13.0 0.00 0.00 0.00 47 1002.1
20260505033854 56 337 7.8 14.8 0.00 0.00 0.00 47 1001.7
20260505033351 56 326 12.2 16.5 0.00 0.00 0.00 47 1001.4
20260505032849 57 342 7.8 11.3 0.00 0.00 0.00 46 1001.4
20260505032345 57 345 9.6 15.6 0.00 0.00 0.00 46 1001.1
20260505031842 57 335 13.0 18.2 0.00 0.00 0.00 45 1000.8
20260505031339 57 336 7.8 18.2 0.00 0.00 0.00 43 1000.5
20260505030837 57 326 6.1 12.2 0.00 0.00 0.00 43 1000.5
20260505030332 57 339 7.0 13.9 0.00 0.00 0.00 43 1000.3
20260505025828 57 321 7.0 15.6 0.00 0.00 0.00 42 1000.0
20260505025326 57 315 7.8 13.9 0.00 0.00 0.00 42 1000.0
20260505024824 58 336 12.2 17.4 0.00 0.00 0.00 41 1000.2
20260505024321 58 328 12.2 22.6 0.00 0.00 0.00 40 1000.2
20260505023818 58 315 12.2 23.5 0.00 0.00 0.00 40 1000.1
20260505023315 59 316 15.6 20.0 0.00 0.00 0.00 41 1000.0
20260505022813 59 321 11.3 20.0 0.00 0.00 0.00 41 999.8
20260505022309 59 328 14.8 17.4 0.00 0.00 0.00 41 999.8
20260505021806 59 327 7.8 16.5 0.00 0.00 0.00 41 1000.1
20260505021303 59 315 14.8 21.7 0.00 0.00 0.00 41 999.7
20260505020759 60 321 15.6 21.7 0.00 0.00 0.00 41 999.6
20260505020254 60 319 13.9 19.1 0.00 0.00 0.00 40 999.5
20260505015752 61 329 11.3 20.0 0.00 0.00 0.00 41 999.4
20260505015249 61 312 8.7 16.5 0.00 0.00 0.00 41 999.3
20260505014746 61 296 13.0 16.5 0.00 0.00 0.00 42 999.2
20260505014243 61 319 7.8 16.5 0.00 0.00 0.00 41 998.9
20260505013739 62 318 10.4 20.9 0.00 0.00 0.00 40 998.8
20260505013237 62 294 14.8 17.4 0.00 0.00 0.00 40 998.7
20260505012735 62 308 26.1 26.1 0.00 0.00 0.00 39 998.8
20260505012232 62 309 12.2 19.1 0.00 0.00 0.00 39 998.5
20260505011727 63 302 14.8 17.4 0.00 0.00 0.00 39 998.7
20260505011225 63 323 8.7 16.5 0.00 0.00 0.00 38 998.4
20260505010720 63 310 7.0 17.4 0.00 0.00 0.00 38 998.4
20260505010217 64 321 12.2 22.6 0.00 0.00 0.00 36 998.4
20260505005714 64 311 14.8 20.9 0.00 0.00 0.00 36 998.4
20260505005211 64 302 14.8 24.3 0.00 0.00 0.00 35 998.3
20260505004708 64 305 12.2 23.5 0.00 0.00 0.00 36 998.1
20260505004204 64 315 17.4 20.9 0.00 0.00 0.00 37 998.2
20260505003701 64 307 8.7 15.6 0.00 0.00 0.00 40 998.0
20260505003159 65 307 7.8 17.4 0.00 0.00 0.00 38 997.9
20260505002655 66 311 16.5 22.6 0.00 0.00 0.00 36 997.6
20260505002153 66 320 7.8 19.1 0.00 0.00 0.00 38 997.8
20260505001650 66 328 8.7 13.9 0.00 0.00 0.00 39 997.5
20260505001147 66 319 11.3 13.9 0.00 0.00 0.00 36 997.1
20260505000644 66 327 11.3 15.6 0.00 0.00 0.00 37 997.4
20260505000142 67 297 10.4 19.1 0.00 0.00 0.00 38 997.2
20260504235638 67 305 19.1 24.3 0.00 0.00 0.00 37 997.0
20260504235135 67 326 10.4 17.4 0.00 0.00 0.00 37 997.0
20260504234632 68 294 16.5 22.6 0.00 0.00 0.00 36 996.9
20260504234130 68 305 14.8 21.7 0.00 0.00 0.00 37 996.9
20260504233625 68 306 7.8 15.6 0.00 0.00 0.00 38 997.0
20260504233121 68 298 17.4 20.0 0.00 0.00 0.00 38 996.9
20260504232619 68 274 13.0 21.7 0.00 0.00 0.00 36 997.1
20260504232116 68 286 13.0 19.1 0.00 0.00 0.00 37 996.7
20260504231613 69 303 19.1 20.9 0.00 0.00 0.00 35 996.7
20260504231109 69 320 12.2 17.4 0.00 0.00 0.00 36 996.8
20260504230605 69 304 11.3 16.5 0.00 0.00 0.00 37 996.8
20260504230104 69 304 15.6 17.4 0.00 0.00 0.00 37 997.0
20260504225601 69 337 15.6 17.4 0.00 0.00 0.00 37 997.0
20260504225058 70 312 8.7 15.6 0.00 0.00 0.00 40 996.7
20260504224554 70 271 8.7 18.2 0.00 0.00 0.00 38 996.9
20260504224052 71 311 7.8 18.2 0.00 0.00 0.00 40 996.3
20260504223549 71 313 12.2 21.7 0.00 0.00 0.00 39 996.6
20260504223044 71 307 13.0 20.9 0.00 0.00 0.00 40 996.6
20260504222541 71 295 13.0 22.6 0.00 0.00 0.00 40 996.6
20260504222039 71 296 11.3 21.7 0.00 0.00 0.00 39 996.6
20260504221536 72 281 18.2 25.2 0.00 0.00 0.00 38 996.3
20260504221032 72 317 14.8 27.8 0.00 0.00 0.00 37 996.2
20260504220529 72 271 20.9 27.8 0.00 0.00 0.00 38 996.3
20260504220026 72 294 13.0 19.1 0.00 0.00 0.00 41 996.2
20260504215522 72 305 20.0 22.6 0.00 0.00 0.00 40 996.0
20260504215020 72 316 20.9 26.9 0.00 0.00 0.00 40 996.0
20260504214516 72 309 12.2 22.6 0.00 0.00 0.00 41 996.0
20260504214012 73 304 19.1 23.5 0.00 0.00 0.00 39 996.0
20260504213509 73 295 20.0 23.5 0.00 0.00 0.00 41 995.8
20260504213006 73 315 14.8 29.5 0.00 0.00 0.00 40 995.6
20260504212502 73 308 17.4 27.8 0.00 0.00 0.00 39 995.8
20260504211959 74 297 13.0 20.0 0.00 0.00 0.00 40 995.8
20260504211456 74 264 12.2 21.7 0.00 0.00 0.00 42 995.7
20260504210953 74 312 7.0 20.9 0.00 0.00 0.00 43 995.9
20260504210450 75 320 8.7 20.0 0.00 0.00 0.00 42 995.7
20260504205947 74 270 7.8 16.5 0.00 0.00 0.00 43 995.6
20260504205444 74 318 14.8 21.7 0.00 0.00 0.00 43 995.8
20260504204943 74 289 9.6 22.6 0.00 0.00 0.00 43 995.7
20260504204441 74 305 9.6 17.4 0.00 0.00 0.00 42 995.8
20260504203939 74 270 11.3 18.2 0.00 0.00 0.00 43 995.7
20260504203437 74 282 7.0 15.6 0.00 0.00 0.00 41 995.7
20260504202933 74 330 7.0 17.4 0.00 0.00 0.00 42 995.6
20260504202429 74 285 8.7 17.4 0.00 0.00 0.00 41 995.8
20260504201926 75 292 6.1 20.0 0.00 0.00 0.00 41 995.9
20260504201424 74 258 11.3 22.6 0.00 0.00 0.00 41 995.9
20260504200921 74 268 3.5 19.1 0.00 0.00 0.00 41 995.9
20260504200417 75 275 9.6 18.2 0.00 0.00 0.00 42 995.8
20260504195914 75 250 13.0 20.9 0.00 0.00 0.00 44 995.7
20260504195410 73 247 17.4 22.6 0.00 0.00 0.00 42 995.9
20260504194907 73 272 20.0 23.5 0.00 0.00 0.00 42 995.9
20260504194403 73 248 9.6 20.0 0.00 0.00 0.00 45 996.1
20260504193859 74 258 14.8 20.9 0.00 0.00 0.00 42 995.9
20260504193356 74 251 7.8 24.3 0.00 0.00 0.00 42 995.7
20260504192855 74 252 14.8 19.1 0.00 0.00 0.00 42 995.9
20260504192352 76 240 18.2 22.6 0.00 0.00 0.00 40 995.9
20260504191850 76 246 13.0 28.7 0.00 0.00 0.00 40 996.2
20260504191348 74 295 7.0 28.7 0.00 0.00 0.00 41 995.9
20260504190843 73 268 6.1 21.7 0.00 0.00 0.00 44 995.9
20260504190339 74 240 22.6 24.3 0.00 0.00 0.00 42 996.0
20260504185836 74 232 8.7 16.5 0.00 0.00 0.00 43 996.3
20260504185333 75 254 7.8 19.1 0.00 0.00 0.00 42 995.9
20260504184829 74 251 16.5 22.6 0.00 0.00 0.00 40 996.0
20260504184325 74 251 14.8 27.8 0.00 0.00 0.00 42 995.8
20260504183821 75 228 14.8 24.3 0.00 0.00 0.00 40 995.8
20260504183319 74 241 15.6 26.1 0.00 0.00 0.00 40 996.0
20260504182816 75 259 10.4 21.7 0.00 0.00 0.00 40 996.1
20260504182314 75 244 21.7 27.8 0.00 0.00 0.00 39 995.8
20260504181811 75 304 12.2 27.8 0.00 0.00 0.00 39 996.1
20260504181308 74 249 21.7 23.5 0.00 0.00 0.00 41 996.1
20260504180807 74 250 15.6 27.8 0.00 0.00 0.00 41 996.1
20260504180305 74 235 13.0 24.3 0.00 0.00 0.00 41 996.1
20260504175803 73 254 12.2 26.1 0.00 0.00 0.00 41 996.0
20260504175259 73 240 22.6 27.8 0.00 0.00 0.00 40 996.3
20260504174757 73 246 17.4 24.3 0.00 0.00 0.00 42 996.3
20260504174255 72 250 24.3 27.8 0.00 0.00 0.00 42 996.4
20260504173751 73 257 24.3 27.8 0.00 0.00 0.00 42 996.2
20260504173248 73 233 17.4 26.9 0.00 0.00 0.00 42 996.6
20260504172745 72 236 14.8 30.4 0.00 0.00 0.00 41 996.4
20260504172241 73 242 28.7 29.5 0.00 0.00 0.00 41 996.4
20260504171737 72 237 25.2 29.5 0.00 0.00 0.00 41 996.5
20260504171235 72 247 24.3 33.0 0.00 0.00 0.00 39 996.5
20260504170732 72 249 20.0 30.4 0.00 0.00 0.00 39 996.7
20260504170229 72 231 28.7 31.3 0.00 0.00 0.00 42 996.6
20260504160147 69 234 21.7 29.5 0.00 0.00 0.00 42 997.3
20260504151115 67 237 20.9 29.5 0.00 0.00 0.00 45 998.0
20260504150612 67 226 16.5 29.5 0.00 0.00 0.00 46 997.6
20260504150109 66 242 22.6 31.3 0.00 0.00 0.00 46 997.9
20260504141038 64 221 18.2 24.3 0.00 0.00 0.00 46 998.9
20260504140534 64 235 15.6 22.6 0.00 0.00 0.00 48 998.7
20260504130459 60 245 14.8 20.9 0.00 0.00 0.00 53 1000.0
20260504110346 51 194 5.2 7.8 0.00 0.00 0.00 68 1001.0
20260504100303 52 216 4.3 7.0 0.00 0.00 0.00 65 1001.7
20260504081657 47 194 3.5 3.5 0.00 0.00 0.00 75 1003.0
20260504081153 48 191 3.5 5.2 0.00 0.00 0.00 74 1003.0
20260504080649 49 170 3.5 4.3 0.00 0.00 0.00 73 1003.1
20260504080146 49 174 4.3 4.3 0.00 0.00 0.00 73 1003.0